Amsterdam, Netherlands

5:40 AM CEST on June 28, 2017 (GMT +0200)
Schiphol

Weather History for EHAM - September, 2013

Change the Weather History Date:

Saturday, September 21, 2013

  Actual Average Record
Temperature  
Mean Temperature 55 °F -  
Max Temperature 64 °F 58 °F 75 °F (2003)
Min Temperature 46 °F 47 °F 39 °F (1997)
Degree Days  
Heating Degree Days 10    
Growing Degree Days 5 (Base 50)    
Moisture  
Dew Point 52 °F    
Average Humidity 83    
Maximum Humidity 100    
Minimum Humidity 57    
Precipitation  
Precipitation 0.00 in - - ()
Sea Level Pressure  
Sea Level Pressure 30.25 in    
Wind  
Wind Speed 6 mph ()    
Max Wind Speed 13 mph    
Max Gust Speed -    
Visibility 7.0 miles    
Events Fog    
Averages and records for this station are not official NWS values.
T = Trace of Precipitation, MM = Missing Value Source: Averaged Metar Reports

Daily Weather History Graph

Daily Weather History Graph

Search for Another Location

Airport or City:

Trip Planner

Search our weather history database for the weather conditions in past years. The results will help you decide how hot, cold, wet, or windy it might be!

Date:

Astronomy

Sep. 21, 2013 Rise Set
Actual Time 7:25 AM CEST 7:41 PM CEST
Civil Twilight 6:51 AM CEST 8:15 PM CEST
Nautical Twilight 6:10 AM CEST 8:55 PM CEST
Astronomical Twilight 5:28 AM CEST 9:37 PM CEST
Moon 8:18 PM CEST (9/21) 9:48 AM CEST (9/21)
Length of Visible Light 13h 24m
Length of Day
12h 16m
Waning Gibbous, 95% of the Moon is Illuminated
Sep 21
Waning Gibbous
Sep 27
Last Quarter
Oct 5
New
Oct 12
First Quarter
Oct 19
Full

Hourly Weather History & Observations

Time (CEST) Temp. Windchill Dew Point Humidity Pressure Visibility Wind Dir Wind Speed Gust Speed Precip Events Conditions
12:25 AM 48.2 °F - 46.4 °F 93% 30.18 in 6.2 mi SSW 4.6 mph - N/A   Partly Cloudy
12:55 AM 46.4 °F 44.3 °F 46.4 °F 100% 30.18 in 6.2 mi SW 4.6 mph - N/A   Partly Cloudy
1:25 AM 46.4 °F 44.3 °F 46.4 °F 100% 30.18 in 6.2 mi SSW 4.6 mph - N/A   Partly Cloudy
1:55 AM 50.0 °F - 48.2 °F 94% 30.18 in 6.2 mi SSW 4.6 mph - N/A   Scattered Clouds
2:00 AM 48 °F - 47 °F 93% 30.21 in 12 mi SSW 4.5 mph - -   Partly Cloudy
2:25 AM 50.0 °F - 48.2 °F 94% 30.18 in 6.2 mi SSW 3.5 mph - N/A   Mostly Cloudy
2:55 AM 50.0 °F - 48.2 °F 94% 30.21 in 6.2 mi ESE 2.3 mph - N/A   Mostly Cloudy
3:25 AM 51.8 °F - 50.0 °F 94% 30.21 in 6.2 mi SSW 3.5 mph - N/A   Mostly Cloudy
3:55 AM 51.8 °F - 50.0 °F 94% 30.21 in 6.2 mi SSE 1.2 mph - N/A   Mostly Cloudy
4:25 AM 51.8 °F - 50.0 °F 94% 30.21 in 6.2 mi South 4.6 mph - N/A   Mostly Cloudy
4:55 AM 53.6 °F - 51.8 °F 94% 30.21 in 6.2 mi South 4.6 mph - N/A   Overcast
5:25 AM 53.6 °F - 51.8 °F 94% 30.21 in 6.2 mi Variable 2.3 mph - N/A   Overcast
5:55 AM 53.6 °F - 51.8 °F 94% 30.21 in 6.2 mi SSE 3.5 mph - N/A Fog Shallow Fog
6:25 AM 53.6 °F - 51.8 °F 94% 30.21 in 6.2 mi SE 3.5 mph - N/A Fog Shallow Fog
6:55 AM 53.6 °F - 51.8 °F 94% 30.21 in 6.2 mi South 4.6 mph - N/A   Mostly Cloudy
7:25 AM 53.6 °F - 51.8 °F 94% 30.21 in 6.2 mi SSE 4.6 mph - N/A   Mostly Cloudy
7:55 AM 53.6 °F - 53.6 °F 100% 30.21 in 6.2 mi South 4.6 mph - N/A   Mostly Cloudy
8:00 AM 54 °F - 53 °F 95% 30.24 in 8 mi SSE 4.5 mph - -   Partly Cloudy
8:25 AM 55.4 °F - 53.6 °F 94% 30.21 in 6.2 mi South 4.6 mph - N/A   Mostly Cloudy
8:55 AM 55.4 °F - 53.6 °F 94% 30.24 in 6.2 mi South 4.6 mph - N/A   Mostly Cloudy
9:25 AM 55.4 °F - 53.6 °F 94% 30.24 in 6.2 mi South 6.9 mph - N/A   Mostly Cloudy
9:55 AM 55.4 °F - 51.8 °F 88% 30.24 in 6.2 mi South 6.9 mph - N/A   Mostly Cloudy
10:25 AM 57.2 °F - 51.8 °F 82% 30.24 in 6.2 mi South 5.8 mph - N/A   Mostly Cloudy
10:55 AM 57.2 °F - 51.8 °F 82% 30.27 in 6.2 mi SSW 9.2 mph - N/A   Mostly Cloudy
11:00 AM 58 °F - 52 °F 76% 30.28 in 11 mi SSW 8.9 mph - -   Overcast
11:25 AM 59.0 °F - 53.6 °F 82% 30.27 in 6.2 mi SSW 9.2 mph - N/A   Partly Cloudy
11:55 AM 59.0 °F - 53.6 °F 82% 30.27 in - SSW 12.7 mph - N/A   Clear
12:25 PM 60.8 °F - 51.8 °F 72% 30.27 in 6.2 mi SSW 11.5 mph - N/A   Mostly Cloudy
12:55 PM 60.8 °F - 51.8 °F 72% 30.27 in 6.2 mi SSW 12.7 mph - N/A   Mostly Cloudy
1:25 PM 60.8 °F - 51.8 °F 72% 30.27 in 6.2 mi SSW 11.5 mph - N/A   Mostly Cloudy
1:55 PM 60.8 °F - 51.8 °F 72% 30.27 in 6.2 mi SW 11.5 mph - N/A   Mostly Cloudy
2:00 PM 61 °F - 53 °F 68% 30.29 in 15 mi SSW 11.2 mph - -   Partly Cloudy
2:25 PM 62.6 °F - 53.6 °F 72% 30.27 in 6.2 mi SW 11.5 mph - N/A   Mostly Cloudy
2:55 PM 62.6 °F - 53.6 °F 72% 30.27 in 6.2 mi SW 11.5 mph - N/A   Scattered Clouds
3:25 PM 64.4 °F - 53.6 °F 68% 30.27 in 6.2 mi SW 10.4 mph - N/A   Scattered Clouds
3:55 PM 64.4 °F - 53.6 °F 68% 30.27 in 6.2 mi SW 10.4 mph - N/A   Scattered Clouds
4:25 PM 64.4 °F - 51.8 °F 64% 30.27 in 6.2 mi SW 11.5 mph - N/A   Scattered Clouds
4:55 PM 62.6 °F - 51.8 °F 68% 30.27 in 6.2 mi SSW 11.5 mph - N/A   Partly Cloudy
5:00 PM 64 °F - 53 °F 57% 30.29 in 17 mi SSW 11.2 mph - -   Partly Cloudy
5:25 PM 62.6 °F - 51.8 °F 68% 30.27 in 6.2 mi SSW 11.5 mph - N/A   Partly Cloudy
5:55 PM 62.6 °F - 51.8 °F 68% 30.27 in 6.2 mi SSW 10.4 mph - N/A   Mostly Cloudy
6:25 PM 62.6 °F - 53.6 °F 72% 30.27 in 6.2 mi SSW 10.4 mph - N/A   Mostly Cloudy
6:55 PM 62.6 °F - 53.6 °F 72% 30.27 in 6.2 mi WSW 9.2 mph - N/A   Partly Cloudy
7:25 PM 60.8 °F - 53.6 °F 77% 30.27 in 6.2 mi SW 6.9 mph - N/A   Partly Cloudy
7:55 PM 60.8 °F - 53.6 °F 77% 30.27 in 6.2 mi SSW 6.9 mph - N/A   Mostly Cloudy
8:00 PM 60 °F - 53 °F 70% 30.29 in 14 mi SSW 6.7 mph - -   Partly Cloudy
8:25 PM 59.0 °F - 51.8 °F 77% 30.27 in 6.2 mi SW 6.9 mph - N/A   Mostly Cloudy
8:55 PM 60.8 °F - 51.8 °F 72% 30.27 in 6.2 mi SSW 8.1 mph - N/A   Mostly Cloudy
9:25 PM 60.8 °F - 53.6 °F 77% 30.27 in 6.2 mi SSW 8.1 mph - N/A   Mostly Cloudy
9:55 PM 59.0 °F - 53.6 °F 82% 30.27 in 6.2 mi South 6.9 mph - N/A   Mostly Cloudy
10:25 PM 59.0 °F - 53.6 °F 82% 30.27 in 6.2 mi South 6.9 mph - N/A   Mostly Cloudy
10:55 PM 59.0 °F - 53.6 °F 82% 30.30 in 6.2 mi SSW 5.8 mph - N/A   Overcast
11:00 PM 59 °F - 54 °F 80% 30.31 in 8 mi SW 6.7 mph - -   Overcast
11:25 PM 59.0 °F - 55.4 °F 88% 30.30 in 6.2 mi SW 6.9 mph - N/A   Overcast
11:55 PM 59.0 °F - 55.4 °F 88% 30.30 in 6.2 mi SSW 8.1 mph - N/A   Overcast